Observations for Trim Patrick St
| Time | AQI | Temp °C | Hum % | Pres Pa | CO μg/m³ | H₂S μg/m³ | NO μg/m³ | NO₂ μg/m³ | O₃ μg/m³ | SO₂ μg/m³ | PM1 μg/m³ | PM2.5 μg/m³ | PM10 μg/m³ |
|---|---|---|---|---|---|---|---|---|---|---|---|---|---|
| Tuesday 4 August 2026 | |||||||||||||
| 05:37 | 1 | 17.1 | 88 | 38,459 | 0.18 | 1.41 | 2.31 | 22.51 | 31.68 | 0 | 14 | 19.76 | 21.74 |
| 05:36 | 1 | 17.1 | 88 | 38,459 | 0.17 | 1.18 | 2.3 | 17.8 | 31.93 | 0 | 14 | 18.41 | 20.25 |
| 05:35 | 1 | 17.2 | 88 | 38,459 | 0.16 | 0.29 | 2.31 | 15.92 | 30.61 | 0 | 13.14 | 19.08 | 20.99 |
| 05:34 | 1 | 17.1 | 88 | 38,459 | 0.18 | 0.52 | 2.31 | 11.21 | 34.6 | 0 | 12.29 | 18.41 | 20.25 |
| 05:33 | 1 | 17.1 | 88 | 38,459 | 0.16 | 1.33 | 2.31 | 12.06 | 34.24 | 0 | 12.29 | 17.04 | 18.74 |
| 05:32 | 1 | 17.1 | 87 | 38,459 | 0.16 | 2.85 | 2.28 | 25.74 | 50.55 | 0 | 14 | 19.81 | 21.79 |
| 05:31 | 1 | 17.1 | 88 | 38,459 | 0.15 | 1.75 | 2.3 | 18.41 | 31.84 | 0 | 14 | 21.15 | 23.27 |
| 05:29 | 1 | 17.1 | 87 | 38,459 | 0.16 | 2.12 | 2.29 | 20.58 | 41.77 | 0 | 13.14 | 18.43 | 20.27 |
| 05:28 | 1 | 17.1 | 88 | 38,459 | 0.17 | 0.55 | 2.3 | 14.14 | 41.22 | 0 | 13.14 | 19.78 | 21.76 |
| 05:25 | 1 | 17.1 | 87 | 38,459 | 0.16 | 2.35 | 2.29 | 14.73 | 49.19 | 0 | 11.43 | 18.44 | 20.28 |
| 05:23 | 1 | 17.1 | 87 | 38,459 | 0.16 | 0 | 2.29 | 7.5 | 38.49 | 0 | 14.86 | 19.12 | 21.03 |
| 05:21 | 1 | 17.1 | 87 | 38,459 | 0.16 | 1.96 | 2.27 | 11.61 | 45.28 | 0 | 14.86 | 19.83 | 21.81 |
| 05:20 | 1 | 17.1 | 87 | 38,459 | 0.16 | 2.14 | 2.29 | 22.38 | 38.43 | 0 | 10.57 | 16.37 | 18.01 |
| 05:19 | 1 | 17.1 | 87 | 38,459 | 0.16 | 0.31 | 2.3 | 15.91 | 27.89 | 0 | 11.43 | 17.06 | 18.76 |
| 05:18 | 1 | 17.1 | 87 | 38,459 | 0.17 | 0 | 2.29 | 16.79 | 37.3 | 0 | 15.71 | 19.8 | 21.78 |
| 05:17 | 1 | 17.1 | 87 | 38,459 | 0.15 | 0 | 2.29 | 15.33 | 27.14 | 0 | 13.14 | 18.43 | 20.27 |
| 05:16 | 1 | 17.1 | 87 | 38,459 | 0.15 | 0 | 2.29 | 10.07 | 48.18 | 0 | 14 | 20.48 | 22.53 |
| 05:15 | 1 | 17.1 | 87 | 38,459 | 0.15 | 0 | 2.29 | 9.3 | 39.83 | 0 | 13.14 | 20.48 | 22.53 |
| 05:14 | 1 | 17 | 87 | 38,459 | 0.17 | 0 | 2.28 | 11.15 | 35.71 | 0 | 14.86 | 20.49 | 22.54 |
| 05:13 | 1 | 17 | 87 | 38,459 | 0.16 | 0 | 2.27 | 4.06 | 30.27 | 0 | 13.14 | 19.81 | 21.79 |